Location: Nairn
(57.5833°N, 3.8667°W)
Time: 22:35:24
(UTC+00:00)

Tiros 1 - Pass Details

Date: 01 December 2020
Orbit: 630 x 663 km, 48.4° (Epoch: 22 January)

Event Time Altitude Azimuth Distance (km) Brightness Sun altitude
Rises 16:01:12 0° 229° (SW) 2,991 13.7 -3.4°
Reaches altitude 10° 16:03:56 10° 216° (SW) 2,078 11.3 -3.7°
Maximum altitude 16:07:41 23° 164° (SSE) 1,398 9.1 -4.1°
Drops below altitude 10° 16:11:26 10° 113° (ESE) 2,073 9.4 -4.6°
Sets 16:14:09 0° 99° (E) 2,981 10.1 -4.9°
